FLOCK 3K-6 (43896 NORAD) Tracking and Keplerian Element Data

This shows tracking and keplerian element data for the satellite.

Feedback or suggestion? Click here.




ElementValue
Catalog43896
NameFLOCK 3K-6
Epoch Orbit331
Epoch Day17.82224179
Epoch Year2019
RAAN287.1307
Inclination97.2996
Eccentricity0.0023019
Argument of Perigee164.4979
Mean Anonmoly195.6968
Mean Motion15.23530253
Decay Rate5.95E-06
L11 43896U 18111W 19017.82224179 .00000595 00000-0 27670-4 0 9990
L22 43896 97.2996 287.1307 0023019 164.4979 195.6968 15.23530253 3317

Live tracking and technical data element details for FLOCK 3K-6 (NORAD 43896). FLOCK 3K-6 can be tracked NOW for your location showing map with azimuth and elevation plus other details from your city location.

Track the satellite on the map from your city or location and see movement details for azimuth, elevation, latitude, longitude, range, height, and movement on the map or in text.







IsCatalogInMostPopularTable: catalog: 43896, numindb: 17
Update: records affected: 1



GetName: 43896 FLOCK 3K-6

Hit Count: updated at: Fri, 18 Jan 2019 22:20:53 GMT